星链-35905(STARLINK-35905)

导读

STARLINK-35905是美国SpaceX公司星链(Starlink)星座的一员,于2025年12月11日从美国发射升空,属于星链低轨宽带通信卫星星座组网卫星。 星链卫星采用平板设计,搭载氪工质霍尔推进器,配备Ku/Ka波段通信载荷与光学星间链路,具备自主避撞能力,寿命末期会主动离轨再入大气层焚毁。该卫星旨在为全球提供覆盖广泛的高速宽带互联网服务,助力星链星座完成全球组网部署。

基本信息
目录编号:
67048
目录名称:
STARLINK-35905
国际标识:
2025-294U
轨道中心:
EARTH
卫星名称:
星链-35905
卫星全名:
星链-35905(STARLINK-35905)
卫星状态:
在轨 (已飞行184 天)
发射日期:
2025-12-11 UTC
国别 :
美国 (US)
星等 :
--
轨道信息
数据来源 国际轨道数据
星历时间: 2026-06-11T19:43:08+0800
1天前
查看轨道信息
半长轴: 6861.236km
偏心率: 0.0000281
轨道倾角: 43.003°
近地点辐角 347.880°
升交点赤经 228.424°
平近点角 12.205°
近地点: 482.906km
远地点: 483.292km
周期: 94.268分钟
每日圈数: 15.275636
详细信息
固有亮度:
5
最大亮度:
2.5
卫星平台:
Starlink V1.0
覆盖范围:
全球
运营商:
太空探索技术公司
运营商所在国:
美国
制造商(研发单位):
太空探索技术公司
制造商所在国:
美国
使用方式:
暂无
卫星简介
Starlink 计划是 SpaceX 推出的全球卫星互联网项目,通过发射低轨道卫星,为全球尤其是偏远地区提供高速、低延迟的互联网服务。自 2019 年起,Starlink 已部署数千颗卫星,旨在缩小全球数字鸿沟,推动互联网普及。该项目还为军事、航空等行业提供通信支持,带来广泛经济效益。
2D轨道图
3D轨道图
轨道高度分析图
轨道倾角分析图
轨道综合分析图
查看轨道综合分析图